Regional Weather Roundup
Issued by NWS

Home | Current Version | Previous Version | Graphics & Text | Print | Product List | Glossary On
Versions: 1 2 3 4 5 6 7 8 9 10 11 12 13 14 15 16 17 18 19 20 21 22 23 24 25 26 27 28 29 30 31 32 33 34 35 36 37 38 39 40 41 42 43 44 45 46 47 48 49 50
000
ASUS45 KBOU 040407
RWRCO

WEATHER ROUNDUP FOR COLORADO
NATIONAL WEATHER SERVICE DENVER/BOULDER CO
1000 PM MDT THU SEP 03 2015

NOTE: "FAIR" INDICATES FEW OR NO CLOUDS BELOW 12000 FEET WITH NO
SIGNIFICANT WEATHER AND/OR OBSTRUCTIONS TO VISIBILITY.

COZ001>005-013-030-031-040500-
...NORTHWEST COLORADO...

CITY           SKY/WX    TMP DP  RH WIND       PRES   REMARKS
CRAIG          CLEAR     61  47  59 E7        30.06S
HAYDEN         CLEAR     57  45  62 E14       30.10S
MEEKER         CLEAR     61  46  57 NE6       30.07R
MOUNT WERNER   NOT AVBL
STEAMBOAT SPGS CLEAR     54  46  74 N3        30.13F
WALDEN         CLEAR     43  41  93 E5        30.23R
$$

COZ006>008-011-040500-
...WEST CENTRAL VALLEYS...

CITY           SKY/WX    TMP DP  RH WIND       PRES   REMARKS
GRAND JUNCTION PTCLDY    72  49  44 SE14      29.95R
MONTROSE       CLEAR     62  55  77 SE9       30.07R
EAGLE          CLEAR     55  52  88 E3        30.17S
RIFLE          CLEAR     60  54  80 SW7       30.03S
DELTA          CLEAR     70  50  50 NE9       30.02R
NUCLA          CLEAR     68  36  30 SE12      30.09R
$$

COZ017>023-064>068-040500-
...SOUTHWEST COLORADO...

CITY           SKY/WX    TMP DP  RH WIND       PRES   REMARKS
DURANGO        MOCLDY    64  38  38 N6        30.14R
CORTEZ         PTCLDY    63  45  51 E8        30.07R
PAGOSA SPRINGS MOCLDY    60  45  57 NE3       30.22R
TELLURIDE      PTCLDY    55  45  71 SE6       30.33R
WOLF CREEK PAS NOT AVBL
$$

COZ009-010-012-014-032>034-037-058>063-040500-
...CENTRAL COLORADO...

CITY           SKY/WX    TMP DP  RH WIND       PRES   REMARKS
ASPEN          CLEAR     51  46  83 SW6       30.21S
BUENA VISTA    PTCLDY    54  46  73 CALM      30.23S
COPPER MTN     CLEAR     46  34  61 SW12G18   30.49S
BERTHOUD PASS  FAIR      39  28  65 W20G26    30.51F
COTTONWOOD PAS PTCLDY    55  37  50 W7        30.35S
GUNNISON       PTCLDY    54  46  76 N6        30.24S
KREMMLING      CLEAR     50  45  81 CALM      30.23R
LEADVILLE      CLEAR     41  40  96 NE6       30.34S
MONARCH PASS   PTCLDY    43  37  81 SW17      30.59S
SALIDA         PTCLDY    62  46  55 W7        30.27R
SUNLIGHT       CLEAR     46  45  93 CALM      30.42S
WILKERSON PASS CLEAR     46  39  76 W5        30.46S
$$

COZ069>075-040500-
...SAN LUIS VALLEY/SANGRE DE CRISTO MOUNTAINS...

CITY           SKY/WX    TMP DP  RH WIND       PRES   REMARKS
ALAMOSA        MOCLDY    54  47  77 SW5       30.21R
LA VETA PASS   PTCLDY    52  37  58 S13G23    30.36F
SAGUACHE       PTCLDY    50  46  87 NE3       30.25R
$$

COZ035-036-038>040-040500-
...NORTHERN COLORADO FRONT RANGE...

CITY           SKY/WX    TMP DP  RH WIND       PRES   REMARKS
DENVER INTL AP PTCLDY    60  56  86 S5        30.02S
DMNS CITY PARK   N/A     61  58  90 SW3       30.01S
AURORA         PTCLDY    60  56  87 SW5       30.04F
FRONT RANGE AP NOT AVBL
ERIE MUNI ARPT CLEAR     59  55  85 CALM      30.00S
BOULDER MUN AP CLEAR     64  48  55 SW5       30.00F
CENTENNIAL     PTCLDY    59  54  83 SW5       30.05S
BROOMFIELD     PTCLDY    61  52  72 W9        30.03F
FORT COLLINS   CLEAR     64  50  59 SE5       30.00S
LONGMONT       CLEAR     63  53  69 W3        30.01S
$$

COZ041-046-047-076>085-087-088-040500-
...PIKES PEAK/PALMER DIVIDE AND SOUTHERN FOOTHILLS...

CITY           SKY/WX    TMP DP  RH WIND       PRES   REMARKS
COLO. SPRINGS  PTCLDY    64  51  62 N9        30.07S
A. F. ACADEMY  CLEAR     58  52  78 N9        30.08F
ELLICOTT       PTCLDY     1  32 100 N3        30.04S
FALCON         PTCLDY    60  50  70 MISG      30.11F
FORT CARSON    PTCLDY    62  53  72 NW10      30.03S
LIMON          CLOUDY    66  53  63 NW10      30.00S
MONUMENT HILL  PTCLDY    54  52  94 W8        30.13F
TRINIDAD       PTCLDY    72  47  40 CALM      30.05R
$$

COZ042>045-048>051-090-091-040500-
...NORTHEAST COLORADO...

CITY           SKY/WX    TMP DP  RH WIND       PRES   REMARKS
GREELEY ARPT   CLEAR     61  52  72 N8        29.98S
AKRON          MOCLDY    68  50  52 W9        29.98R
BURLINGTON     CLOUDY    73  54  51 N12       29.91S
WRAY           CLOUDY    67  64  87 W6        29.87F
STERLING       CLOUDY    73  52  46 NE10      29.90F
HOLYOKE        CLOUDY    73  64  73 NW9       29.90S
FORT MORGAN    MOCLDY    66  51  58 W7        29.96S
$$

COZ086-089-092>099-040500-
...SOUTHEAST COLORADO...

CITY           SKY/WX    TMP DP  RH WIND       PRES   REMARKS
PUEBLO         PTCLDY    73  52  47 NW8       29.95R
LA JUNTA       MOCLDY    77  52  41 N9        29.91R
LAMAR          MOCLDY    81  51  35 W16       29.83R
SPRINGFIELD      N/A     76  48  37 S17       29.93R
$$



USA.gov is the U.S. government's official web portal to all federal, state and local government web resources and services.